Details From PAPG - PETERSBURG JAMES A JOHNSON
To PAJN - Juneau Intl
Flight Number -
Tags generated
Created
Modified
Stats Distance 117 nm / 216 km
Max Altitude 7,900 ft / 2,408 m
Waypoints 3
Social Downloads 1
Likes 0
Share VATSIM

Download

Looking for another format? Having issues loading an existing format? Contact us
Advertisement - Login to hide

Notes

Basic altitude profile: - Ascent Rate: 2500ft/min - Ascent Speed: 250kts - Cruise Altitude: 35000ft - Cruise Speed: 420kts - Descent Rate: 1500ft/min - Descent Speed: 250kts Options: - Use NATs: yes - Use PACOTS: yes - Use low airways: no - Use high airways: yes

Route

PAPG HOODS PAJN

ID Type Via Altitude Latitude Longitude Leg Dist Tot Dist Heading (true) Name
O PAPG APT - 0 ft / 0 m 56.80165˚ -132.94529˚ - 0 nm - PETERSBURG JAMES A JOHNSON
HOODS FIX - 7,900 ft / 2,408 m 57.74293˚ -134.68157˚ 79 nm 79 nm 316° / 314° -
O PAJN APT - 0 ft / 0 m 58.35496˚ -134.57628˚ 36 nm 116 nm 5° / 5° Juneau Intl

Altitude Profile

Advertisement - Login to hide

PAPG

Details ICAO PAPG (PSG)
Name PETERSBURG JAMES A JOHNSON
Region USA (Alaska)
Timezone America/Juneau (UTC-8.0)
Stats Elevation 105 ft / 32 m (AMSL)
Location 56.801651° -132.945289°
Runways 1
Magnetic Variation 18.748° E

METAR

PAPG 272356Z 20003KT 10SM -RA SCT029 BKN036 OVC043 09/06 A2986 RMK AO2 SLP115 P0001 60001 T00890061 10111 20089 58004

Decode

TAF

PAPG 272330Z 2800/2824 VRB05KT P6SM -SHRA SCT035 BKN050 FM280500 22005KT 6SM -SHRA BR BKN025 OVC040 TEMPO 2814/2818 4SM -SHRA BR BKN015 OVC025 FM281800 12008KT P6SM -SHRA BKN030 OVC045 AMD LTD TO CLD VIS AND WIND 2806/2815

Decode

Departure Runways

ID Width Length Bearing (true) Bearing (mag) Surface Threshold Offset Overrun Length
04 150 ft / 46 m 5,982 ft / 1,823 m 70.70° 51.95° Asphalt 0 ft / 0 m 0 ft / 0 m
22 150 ft / 46 m 5,982 ft / 1,823 m 250.73° 231.98° Asphalt 0 ft / 0 m 0 ft / 0 m

PAJN

Details ICAO PAJN (JNU)
Name Juneau Intl
Region USA (Alaska)
Timezone America/Juneau (UTC-8.0)
Stats Elevation 21 ft / 6 m (AMSL)
Location 58.354964° -134.576278°
Runways 1
Magnetic Variation 19.017° E

METAR

PAJN 272353Z 12010KT 10SM -RA SCT039 BKN060 OVC110 10/07 A2982

Decode

TAF

PAJN 272330Z 2800/2824 12014KT P6SM -SHRA FEW025 BKN045 OVC070 FM280800 09007KT P6SM VCSH BKN035 OVC090 FM281400 11011KT P6SM -SHRA OVC035

Decode

Destination Runways

ID Width Length Bearing (true) Bearing (mag) Surface Threshold Offset Overrun Length
08 150 ft / 46 m 8,430 ft / 2,570 m 104.87° 85.85° Asphalt 0 ft / 0 m 450 ft / 137 m
26 150 ft / 46 m 8,430 ft / 2,570 m 284.90° 265.88° Asphalt 0 ft / 0 m 225 ft / 69 m

Approach Navaids

Runway Type Ident Frequency Range Bearing (true) Bearing (mag) Slope Elevation
08 Localiser IJDL 109.90 MHz 18 nm / 33 km 84.92° 65.91° - 21 ft / 6 m (AMSL)
08 DME IJDL 109.90 MHz 18 nm / 33 km - - - 175 ft / 53 m (AMSL)

Popular Alternatives